D8954 Weather Reports


Display with metric or nautical units.
time (UTC)temp
F
wind
direction
speed
MPH
gust
MPH
rain 1hr
in
rain 24hr
in
rain mn
in
humidity
%
barometer
mb
20260902142505 73 190 1.0 12.0 0.00 0.00 0.00 54 1020.1
20260902142005 72 19 2.0 8.0 0.00 0.00 0.00 55 1020.1
20260902141505 72 222 3.0 10.0 0.00 0.00 0.00 56 1020.1
20260902141006 72 329 6.0 12.0 0.00 0.00 0.00 53 1020.1
20260902140505 73 343 6.0 10.0 0.00 0.00 0.00 54 1020.5
20260902140005 73 8 3.0 9.0 0.00 0.00 0.00 55 1020.1
20260902135505 73 19 2.0 8.0 0.00 0.00 0.00 56 1020.0
20260902135005 73 330 6.0 12.0 0.00 0.00 0.00 54 1020.0
20260902134505 73 267 3.0 10.0 0.00 0.00 0.00 52 1020.1
20260902134006 73 336 3.0 14.0 0.00 0.00 0.00 53 1020.0
20260902133505 73 332 1.0 3.0 0.00 0.00 0.00 56 1020.1
20260902133005 73 291 2.0 6.0 0.00 0.00 0.00 55 1020.1
20260902132005 73 53 3.0 12.0 0.00 0.00 0.00 55 1020.1
20260902131505 73 334 5.0 9.0 0.00 0.00 0.00 56 1020.1
20260902131005 73 330 5.0 10.0 0.00 0.00 0.00 56 1020.1
20260902130505 73 235 2.0 7.0 0.00 0.00 0.00 54 1020.1
20260902124505 73 278 1.0 7.0 0.00 0.00 0.00 57 1020.2
20260902124006 72 319 2.0 9.0 0.00 0.00 0.00 57 1020.2
20260902123505 72 288 1.0 6.0 0.00 0.00 0.00 59 1020.2
20260902123005 72 348 3.0 9.0 0.00 0.00 0.00 57 1020.2
20260902122505 73 302 3.0 7.0 0.00 0.00 0.00 56 1020.2
20260902122005 72 9 2.0 7.0 0.00 0.00 0.00 59 1020.2
20260902121505 72 337 4.0 9.0 0.00 0.00 0.00 59 1020.2
20260902120504 71 324 2.0 6.0 0.00 0.00 0.00 61 1020.2
20260902120005 72 305 4.0 8.0 0.00 0.00 0.00 61 1020.2
20260902115505 72 2 3.0 12.0 0.00 0.00 0.00 61 1020.2
20260902115005 72 355 3.0 8.0 0.00 0.00 0.00 61 1020.2
20260902114505 72 285 2.0 3.0 0.00 0.00 0.00 60 1020.2
20260902114005 73 86 2.0 6.0 0.00 0.00 0.00 59 1020.2
20260902113504 72 14 7.0 12.0 0.00 0.00 0.00 59 1020.3
20260902113005 72 25 7.0 12.0 0.00 0.00 0.00 60 1020.5
20260902112505 71 17 5.0 10.0 0.00 0.00 0.00 60 1020.5
20260902111505 70 322 4.0 10.0 0.00 0.00 0.00 62 1020.8
20260902111005 70 346 4.0 8.0 0.00 0.00 0.00 62 1020.6
20260902110505 70 43 3.0 7.0 0.00 0.00 0.00 64 1020.6
20260902110007 70 12 6.0 12.0 0.00 0.00 0.00 63 1020.7
20260902105505 69 336 4.0 10.0 0.00 0.00 0.00 65 1020.8
20260902105005 69 352 6.0 10.0 0.00 0.00 0.00 64 1020.8
20260902104006 70 329 3.0 9.0 0.00 0.00 0.00 64 1020.8
20260902103504 70 357 6.0 13.0 0.00 0.00 0.00 63 1020.8
20260902103005 70 24 2.0 12.0 0.00 0.00 0.00 60 1020.7
20260902102506 70 48 3.0 6.0 0.00 0.00 0.00 62 1020.8
20260902101504 70 296 2.0 7.0 0.00 0.00 0.00 60 1020.8
20260902101005 71 214 2.0 5.0 0.00 0.00 0.00 58 1020.8
20260902100505 71 351 3.0 5.0 0.00 0.00 0.00 58 1020.9
20260902100005 71 232 7.0 10.0 0.00 0.00 0.00 59 1020.9
20260902095505 71 223 2.0 3.0 0.00 0.00 0.00 59 1020.9
20260902095004 72 318 2.0 6.0 0.00 0.00 0.00 61 1020.9
20260902094006 70 346 1.0 3.0 0.00 0.00 0.00 60 1020.9
20260902093505 70 286 1.0 3.0 0.00 0.00 0.00 61 1021.0
20260902093005 70 233 1.0 2.0 0.00 0.00 0.00 61 1021.0
20260902092005 68 291 2.0 5.0 0.00 0.00 0.00 63 1021.0
20260902091504 69 278 2.0 5.0 0.00 0.00 0.00 61 1021.2
20260902091004 69 24 2.0 10.0 0.00 0.00 0.00 62 1021.1
20260902090005 69 302 5.0 9.0 0.00 0.00 0.00 61 1021.1
20260902085005 68 290 1.0 2.0 0.00 0.00 0.00 70 1021.0
20260902084504 66 246 1.0 2.0 0.00 0.00 0.00 75 1020.9
20260902084005 65 274 0.0 2.0 0.00 0.00 0.00 75 1020.8
20260902083504 64 273 0.0 1.0 0.00 0.00 0.00 77 1020.9
20260902083005 63 273 0.0 0.0 0.00 0.00 0.00 75 1021.1
20260902082505 62 273 0.0 1.0 0.00 0.00 0.00 75 1021.1
20260902082005 62 273 0.0 0.0 0.00 0.00 0.00 76 1021.1
20260902081505 62 273 0.0 1.0 0.00 0.00 0.00 78 1021.0
20260902081005 62 273 0.0 0.0 0.00 0.00 0.00 77 1020.9
20260902080504 61 273 0.0 0.0 0.00 0.00 0.00 77 1021.0
20260902080005 61 273 0.0 1.0 0.00 0.00 0.00 78 1020.9
20260902075005 60 273 0.0 0.0 0.00 0.00 0.00 79 1020.8
20260902074504 60 273 0.0 0.0 0.00 0.00 0.00 78 1020.8
20260902073504 60 273 0.0 0.0 0.00 0.00 0.00 80 1020.7
20260902073004 59 273 0.0 0.0 0.00 0.00 0.00 81 1020.5
20260902072505 59 273 0.0 1.0 0.00 0.00 0.00 80 1020.5
20260902072005 59 273 0.0 0.0 0.00 0.00 0.00 78 1020.5
20260902071505 59 273 0.0 2.0 0.00 0.00 0.00 79 1020.6
20260902070505 59 273 0.0 1.0 0.00 0.00 0.00 81 1020.5
20260902070006 58 273 0.0 0.0 0.00 0.00 0.00 82 1020.6
20260902064504 57 273 0.0 0.0 0.00 0.00 0.00 83 1020.6
20260902064005 56 273 0.0 0.0 0.00 0.00 0.00 81 1020.6
20260902063505 56 273 0.0 0.0 0.00 0.00 0.00 81 1020.5
20260902063005 56 273 0.0 0.0 0.00 0.00 0.00 81 1020.6
20260902062504 56 273 0.0 0.0 0.00 0.00 0.00 81 1020.6
20260902062004 56 273 0.0 0.0 0.00 0.00 0.00 82 1020.7
20260902061504 55 273 1.0 1.0 0.00 0.00 0.00 82 1020.7
20260902061005 55 275 0.0 0.0 0.00 0.00 0.00 85 1020.7
20260902060505 55 275 0.0 0.0 0.00 0.00 0.00 85 1020.7
20260902060004 54 275 0.0 0.0 0.00 0.00 0.00 84 1020.7
20260902055005 54 275 0.0 0.0 0.00 0.00 0.00 84 1020.7
20260902054505 54 275 0.0 0.0 0.00 0.00 0.00 83 1020.7
20260902054005 54 275 0.0 0.0 0.00 0.00 0.00 82 1020.6
20260902053505 54 275 0.0 0.0 0.00 0.00 0.00 82 1020.6
20260902053004 54 275 0.0 0.0 0.00 0.00 0.00 82 1020.5
20260902052505 54 275 0.0 0.0 0.00 0.00 0.00 84 1020.5
20260902051504 53 275 0.0 0.0 0.00 0.00 0.00 84 1020.4
20260902051005 53 275 0.0 0.0 0.00 0.00 0.00 84 1020.4
20260902050505 53 275 0.0 0.0 0.00 0.00 0.00 84 1020.3
20260902050007 53 275 0.0 0.0 0.00 0.00 0.00 83 1020.4
20260902045505 53 275 0.0 0.0 0.00 0.00 0.00 82 1020.6
20260902045005 53 275 0.0 0.0 0.00 0.00 0.00 82 1020.5
20260902044006 53 275 0.0 0.0 0.00 0.00 0.00 84 1020.4
20260902043504 52 275 0.0 0.0 0.00 0.00 0.00 84 1020.5
20260902043005 53 275 0.0 1.0 0.00 0.00 0.00 83 1020.4
20260902042504 53 275 0.0 0.0 0.00 0.00 0.00 82 1020.5
20260902042005 54 275 0.0 0.0 0.00 0.00 0.00 81 1020.5
20260902041505 54 275 0.0 1.0 0.00 0.00 0.00 83 1020.5
20260902041005 53 275 0.0 1.0 0.00 0.00 0.00 82 1020.6
20260902040505 53 275 0.0 0.0 0.00 0.00 0.00 80 1020.6
20260902040004 53 275 0.0 0.0 0.00 0.00 0.00 81 1020.5
20260902035505 53 275 0.0 0.0 0.00 0.00 0.00 82 1020.6
20260902034504 53 275 0.0 0.0 0.00 0.00 0.00 82 1020.6
20260902034005 53 275 1.0 1.0 0.00 0.00 0.00 81 1020.6
20260902033505 53 275 1.0 2.0 0.00 0.00 0.00 82 1020.6
20260902033005 53 275 0.0 0.0 0.00 0.00 0.00 82 1020.6
20260902032504 53 275 0.0 0.0 0.00 0.00 0.00 83 1020.5
20260902032004 53 275 0.0 1.0 0.00 0.00 0.00 82 1020.5
20260902031504 53 275 1.0 1.0 0.00 0.00 0.00 83 1020.6
20260902031005 53 275 1.0 2.0 0.00 0.00 0.00 83 1020.5
20260902030504 53 275 1.0 2.0 0.00 0.00 0.00 83 1020.6
20260902025504 53 275 2.0 3.0 0.00 0.00 0.00 84 1020.6
20260902025004 52 275 1.0 2.0 0.00 0.00 0.00 84 1020.6
20260902024505 53 275 0.0 3.0 0.00 0.00 0.00 83 1020.7
20260902024005 53 275 2.0 3.0 0.00 0.00 0.00 83 1020.7
20260902023505 53 275 1.0 2.0 0.00 0.00 0.00 84 1020.6
20260902023004 53 275 1.0 2.0 0.00 0.00 0.00 84 1020.7
20260902022504 53 275 0.0 2.0 0.00 0.00 0.00 84 1020.6
20260902022005 53 275 2.0 3.0 0.00 0.00 0.00 83 1020.7
20260902021505 53 275 2.0 2.0 0.00 0.01 0.00 83 1020.6
20260902021004 53 275 1.0 2.0 0.00 0.01 0.00 83 1020.6
20260902020504 53 275 2.0 2.0 0.00 0.01 0.00 83 1020.7
20260902020004 53 275 0.0 2.0 0.00 0.01 0.00 84 1020.6
20260902015504 53 275 1.0 2.0 0.00 0.01 0.00 84 1020.6
20260902014504 53 275 2.0 3.0 0.00 0.01 0.00 83 1020.6
20260902014005 53 275 0.0 1.0 0.00 0.01 0.00 84 1020.6
20260902013504 53 275 1.0 2.0 0.00 0.01 0.00 83 1020.7
20260902013005 54 275 1.0 2.0 0.00 0.01 0.00 82 1020.6
20260902012005 54 276 1.0 3.0 0.00 0.01 0.00 82 1020.5
20260902011504 54 276 3.0 3.0 0.00 0.01 0.00 83 1020.7
20260902011005 54 285 1.0 2.0 0.00 0.01 0.00 83 1020.7
20260902010005 54 286 0.0 2.0 0.00 0.01 0.00 83 1020.9
20260902005504 54 286 1.0 1.0 0.00 0.01 0.00 84 1020.9
20260902005004 54 286 0.0 1.0 0.00 0.01 0.00 84 1020.8
20260902003005 55 286 1.0 3.0 0.00 0.01 0.00 83 1020.9
20260902002504 54 286 2.0 3.0 0.00 0.01 0.00 84 1020.9
20260902001504 54 286 1.0 2.0 0.00 0.01 0.00 83 1021.0
20260902001005 55 286 2.0 3.0 0.00 0.01 0.00 83 1021.0
20260902000504 55 286 2.0 3.0 0.00 0.01 0.00 83 1021.1
20260902000005 55 288 1.0 2.0 0.00 0.01 0.00 84 1021.1
20260901235504 55 288 0.0 1.0 0.00 0.01 0.00 83 1021.2
20260901235005 55 288 1.0 2.0 0.00 0.01 0.00 83 1021.2
20260901234006 55 295 2.0 3.0 0.00 0.01 0.00 83 1021.2
20260901233505 55 296 1.0 2.0 0.00 0.01 0.00 83 1021.3
20260901233004 55 296 1.0 2.0 0.00 0.01 0.00 83 1021.4
20260901232004 55 296 2.0 2.0 0.00 0.01 0.00 83 1021.4
20260901231504 55 296 1.0 2.0 0.00 0.01 0.00 83 1021.5
20260901231004 55 297 1.0 2.0 0.00 0.01 0.00 83 1021.4
20260901230505 55 297 1.0 2.0 0.00 0.01 0.00 83 1021.4
20260901230004 55 296 1.0 2.0 0.00 0.01 0.00 83 1021.2
20260901225505 55 296 0.0 1.0 0.00 0.01 0.00 84 1021.2
20260901224504 56 297 1.0 2.0 0.00 0.01 0.00 83 1021.2
20260901224005 56 296 2.0 3.0 0.00 0.01 0.00 83 1021.1
20260901223504 56 297 2.0 2.0 0.00 0.01 0.00 83 1021.1
20260901223005 56 297 2.0 2.0 0.00 0.01 0.00 83 1021.2
20260901222006 56 298 2.0 2.0 0.00 0.01 0.00 82 1021.1
20260901221504 57 298 2.0 3.0 0.00 0.01 0.00 81 1021.1
20260901221004 57 298 2.0 3.0 0.00 0.01 0.00 81 1021.1
20260901220504 56 299 2.0 3.0 0.00 0.01 0.00 82 1021.1
20260901220004 57 319 1.0 2.0 0.00 0.01 0.00 81 1021.2
20260901215504 57 273 3.0 3.0 0.00 0.01 0.01 82 1021.2
20260901215005 57 279 2.0 3.0 0.00 0.01 0.01 82 1021.1
20260901214504 57 279 2.0 3.0 0.00 0.01 0.01 81 1021.1
20260901213504 58 281 2.0 3.0 0.00 0.01 0.01 80 1021.0
20260901213004 58 280 2.0 3.0 0.00 0.01 0.01 81 1021.0
20260901212504 58 280 2.0 3.0 0.00 0.01 0.01 81 1021.0
20260901212005 58 281 2.0 3.0 0.00 0.01 0.01 81 1021.0
20260901211504 57 282 2.0 3.0 0.00 0.01 0.01 82 1021.0
20260901211005 57 285 2.0 3.0 0.00 0.01 0.01 82 1021.2
20260901210504 57 286 2.0 3.0 0.00 0.01 0.01 82 1021.2
20260901210004 57 290 3.0 3.0 0.00 0.01 0.01 82 1021.3
20260901205504 58 291 3.0 3.0 0.00 0.01 0.01 82 1021.3
20260901205004 58 288 3.0 3.0 0.00 0.01 0.01 82 1021.3
20260901204005 58 278 3.0 3.0 0.00 0.01 0.01 81 1021.2
20260901203505 58 278 2.0 3.0 0.00 0.01 0.01 81 1021.3
20260901203004 58 278 3.0 3.0 0.00 0.01 0.01 81 1021.2
20260901202504 58 272 2.0 3.0 0.00 0.01 0.01 81 1021.2
20260901202004 58 272 2.0 3.0 0.00 0.01 0.01 81 1021.1
20260901201004 58 272 2.0 3.0 0.00 0.01 0.01 80 1021.1
20260901200004 58 271 2.0 3.0 0.00 0.01 0.01 80 1021.1
20260901195504 58 271 2.0 3.0 0.00 0.01 0.01 80 1021.0
20260901195005 58 271 2.0 3.0 0.00 0.01 0.01 81 1021.0
20260901194504 59 271 2.0 3.0 0.00 0.01 0.01 80 1021.0
20260901194005 59 271 2.0 3.0 0.00 0.01 0.01 80 1021.0
20260901193504 59 271 2.0 3.0 0.00 0.01 0.01 80 1021.0
20260901193004 59 271 2.0 2.0 0.00 0.01 0.01 79 1020.9
20260901192505 60 271 2.0 2.0 0.00 0.01 0.01 78 1020.8
20260901192004 60 271 2.0 3.0 0.00 0.01 0.01 77 1020.7
20260901191504 60 271 2.0 3.0 0.00 0.01 0.01 78 1020.7
20260901191004 60 271 2.0 3.0 0.00 0.01 0.01 77 1020.6
20260901190504 60 271 2.0 3.0 0.00 0.02 0.01 77 1020.6
20260901190004 60 271 2.0 2.0 0.00 0.06 0.01 77 1020.6
20260901185504 60 271 2.0 3.0 0.00 0.09 0.01 77 1020.7
20260901185004 60 271 2.0 3.0 0.00 0.09 0.01 76 1020.7
20260901184005 61 273 2.0 3.0 0.00 0.09 0.01 75 1020.4
20260901183504 61 281 2.0 3.0 0.00 0.09 0.01 75 1020.4
20260901183004 62 282 2.0 3.0 0.00 0.09 0.01 73 1020.3
20260901182504 62 282 2.0 2.0 0.00 0.09 0.01 73 1020.4
20260901182005 62 282 2.0 2.0 0.00 0.09 0.01 74 1020.5
20260901181504 63 282 1.0 2.0 0.00 0.09 0.01 73 1020.5
20260901181004 64 282 1.0 2.0 0.00 0.09 0.01 71 1020.3
20260901180504 64 282 1.0 1.0 0.00 0.09 0.01 69 1020.3
20260901180006 65 282 1.0 1.0 0.00 0.09 0.01 68 1020.3
20260901175504 65 282 0.0 1.0 0.00 0.09 0.01 67 1020.3
20260901175005 66 282 0.0 1.0 0.00 0.09 0.01 68 1020.3
20260901174007 67 282 0.0 2.0 0.00 0.09 0.01 67 1020.3
20260901173504 67 282 0.0 2.0 0.00 0.09 0.01 66 1020.3
20260901173004 67 282 0.0 1.0 0.00 0.09 0.01 65 1020.3
20260901172004 67 282 1.0 2.0 0.00 0.09 0.01 64 1020.3
20260901171504 67 283 1.0 1.0 0.00 0.09 0.01 66 1020.3
20260901171004 68 283 0.0 1.0 0.00 0.09 0.01 65 1020.4
20260901170504 68 283 1.0 2.0 0.00 0.09 0.01 65 1020.3
20260901170004 68 283 1.0 2.0 0.00 0.09 0.01 66 1020.4
20260901165504 68 315 0.0 0.0 0.00 0.09 0.01 64 1020.3
20260901165004 68 315 0.0 0.0 0.00 0.09 0.01 64 1020.4
20260901164004 68 315 0.0 0.0 0.00 0.09 0.01 64 1020.4
20260901163504 68 315 0.0 0.0 0.00 0.09 0.01 64 1020.4
20260901163005 68 315 0.0 0.0 0.00 0.09 0.01 63 1020.4
20260901162506 68 316 1.0 3.0 0.00 0.09 0.01 63 1020.3
20260901162004 68 272 1.0 3.0 0.00 0.09 0.01 62 1020.3
20260901161504 69 281 0.0 5.0 0.00 0.09 0.01 62 1020.4
20260901160504 69 324 1.0 3.0 0.00 0.09 0.01 60 1020.3
20260901160004 69 311 0.0 3.0 0.00 0.09 0.01 62 1020.3
20260901155504 69 275 1.0 6.0 0.00 0.10 0.01 61 1020.3
20260901155005 69 1 1.0 3.0 0.00 0.10 0.01 62 1020.3
20260901154504 69 299 1.0 3.0 0.00 0.15 0.01 61 1020.3
20260901154004 70 259 1.0 2.0 0.00 0.22 0.01 61 1020.3
20260901153504 70 342 0.0 2.0 0.00 0.22 0.01 59 1020.3
20260901152504 70 339 1.0 7.0 0.00 0.22 0.01 59 1020.3
20260901152004 70 354 1.0 3.0 0.00 0.22 0.01 56 1020.3
20260901151504 71 0 1.0 3.0 0.00 0.22 0.01 58 1020.4
20260901151004 70 317 1.0 5.0 0.00 0.22 0.01 58 1020.4
20260901150503 70 356 4.0 8.0 0.00 0.22 0.01 56 1020.5
20260901150004 71 343 3.0 8.0 0.00 0.22 0.01 56 1020.3
20260901145504 71 342 2.0 5.0 0.00 0.22 0.01 56 1020.3
20260901145004 71 35 1.0 5.0 0.00 0.22 0.01 55 1020.3
20260901144504 71 204 1.0 5.0 0.00 0.22 0.01 55 1020.3
20260901144005 71 199 2.0 6.0 0.00 0.22 0.01 54 1020.3
20260901143505 70 197 3.0 6.0 0.00 0.22 0.01 55 1020.4
20260901143004 71 224 2.0 8.0 0.00 0.22 0.01 53 1020.3